Time,TemperatureF,DewpointF,PressureIn,WindDirection,WindDirectionDegrees,WindSpeedMPH,WindSpeedGustMPH,Humidity,HourlyPrecipIn,Conditions,Clouds,dailyrainin,SoftwareType,DateUTC
2013-05-14 00:01:00,62.7,47.0,29.64,North,-999,5.0,5.0,56,0.00,,,0.01,weatherlink.com 1.10,2013-05-14 05:01:00,
2013-05-14 00:16:00,63.4,46.0,29.65,North,-999,4.0,5.0,54,0.00,,,0.00,weatherlink.com 1.10,2013-05-14 05:16:00,
2013-05-14 00:31:00,64.5,46.0,29.65,North,-999,4.0,7.0,51,0.00,,,0.00,weatherlink.com 1.10,2013-05-14 05:31:00,
2013-05-14 00:46:00,65.0,45.0,29.65,North,-999,5.0,6.0,49,0.00,,,0.00,weatherlink.com 1.10,2013-05-14 05:46:00,
2013-05-14 01:01:00,65.7,45.0,29.65,North,-999,4.0,6.0,47,0.00,,,0.00,weatherlink.com 1.10,2013-05-14 06:01:00,
2013-05-14 01:16:00,65.7,44.0,29.66,North,-999,5.0,6.0,46,0.00,,,0.00,weatherlink.com 1.10,2013-05-14 06:16:00,
2013-05-14 01:31:00,65.7,44.0,29.66,North,-999,4.0,6.0,45,0.00,,,0.00,weatherlink.com 1.10,2013-05-14 06:31:00,
2013-05-14 01:46:00,65.3,43.0,29.66,North,-999,2.0,7.0,45,0.00,,,0.00,weatherlink.com 1.10,2013-05-14 06:46:00,
2013-05-14 02:01:00,64.8,43.0,29.66,North,-999,3.0,4.0,45,0.00,,,0.00,weatherlink.com 1.10,2013-05-14 07:01:00,
2013-05-14 02:16:00,64.5,43.0,29.66,North,-999,2.0,5.0,45,0.00,,,0.00,weatherlink.com 1.10,2013-05-14 07:16:00,
2013-05-14 02:31:00,64.4,42.0,29.66,North,-999,2.0,4.0,45,0.00,,,0.00,weatherlink.com 1.10,2013-05-14 07:31:00,
2013-05-14 02:46:00,63.1,43.0,29.67,North,-999,2.0,3.0,49,0.00,,,0.00,weatherlink.com 1.10,2013-05-14 07:46:00,
2013-05-14 03:01:00,61.8,42.0,29.67,North,-999,1.0,2.0,49,0.00,,,0.00,weatherlink.com 1.10,2013-05-14 08:01:00,
2013-05-14 03:16:00,61.8,42.0,29.66,North,-999,1.0,2.0,49,0.00,,,0.00,weatherlink.com 1.10,2013-05-14 08:16:00,
2013-05-14 03:31:00,61.0,42.0,29.66,North,-999,2.0,3.0,50,0.00,,,0.00,weatherlink.com 1.10,2013-05-14 08:31:00,
2013-05-14 03:46:00,60.4,42.0,29.66,North,-999,2.0,3.0,52,0.00,,,0.00,weatherlink.com 1.10,2013-05-14 08:46:00,
2013-05-14 04:01:00,60.7,41.0,29.66,North,-999,1.0,2.0,49,0.00,,,0.00,weatherlink.com 1.10,2013-05-14 09:01:00,
2013-05-14 04:16:00,59.8,41.0,29.66,North,-999,1.0,1.0,50,0.00,,,0.00,weatherlink.com 1.10,2013-05-14 09:16:00,
2013-05-14 04:31:00,58.3,42.0,29.66,North,-999,2.0,2.0,56,0.00,,,0.00,weatherlink.com 1.10,2013-05-14 09:31:00,
2013-05-14 04:46:00,57.5,41.0,29.66,North,-999,1.0,3.0,55,0.00,,,0.00,weatherlink.com 1.10,2013-05-14 09:46:00,
2013-05-14 05:01:00,58.4,41.0,29.65,North,-999,0.0,2.0,52,0.00,,,0.00,weatherlink.com 1.10,2013-05-14 10:01:00,
2013-05-14 05:16:00,57.8,41.0,29.65,North,-999,0.0,0.0,53,0.00,,,0.00,weatherlink.com 1.10,2013-05-14 10:16:00,
2013-05-14 05:31:00,57.0,40.0,29.65,North,-999,0.0,1.0,54,0.00,,,0.00,weatherlink.com 1.10,2013-05-14 10:31:00,
2013-05-14 05:46:00,56.8,41.0,29.65,North,-999,1.0,2.0,57,0.00,,,0.00,weatherlink.com 1.10,2013-05-14 10:46:00,
2013-05-14 06:01:00,55.8,41.0,29.65,North,-999,1.0,1.0,57,0.00,,,0.00,weatherlink.com 1.10,2013-05-14 11:01:00,
2013-05-14 06:17:00,55.5,42.0,29.63,North,-999,3.0,4.0,60,0.00,,,0.00,weatherlink.com 1.10,2013-05-14 11:17:00,
2013-05-14 06:32:00,56.2,41.0,29.62,North,-999,1.0,4.0,58,0.00,,,0.00,weatherlink.com 1.10,2013-05-14 11:32:00,
2013-05-14 06:47:00,57.3,42.0,29.63,North,-999,2.0,4.0,56,0.00,,,0.00,weatherlink.com 1.10,2013-05-14 11:47:00,
2013-05-14 07:02:00,58.0,42.0,29.64,North,-999,3.0,8.0,55,0.00,,,0.00,weatherlink.com 1.10,2013-05-14 12:02:00,
2013-05-14 07:17:00,57.4,42.0,29.65,North,-999,5.0,9.0,57,0.00,,,0.00,weatherlink.com 1.10,2013-05-14 12:17:00,
2013-05-14 07:32:00,59.0,43.0,29.64,North,-999,5.0,6.0,55,0.00,,,0.00,weatherlink.com 1.10,2013-05-14 12:32:00,
2013-05-14 07:47:00,61.1,45.0,29.63,North,-999,4.0,5.0,56,0.00,,,0.00,weatherlink.com 1.10,2013-05-14 12:47:00,
2013-05-14 08:02:00,63.3,45.0,29.62,North,-999,2.0,5.0,51,0.00,,,0.00,weatherlink.com 1.10,2013-05-14 13:02:00,
2013-05-14 08:17:00,64.4,45.0,29.62,North,-999,5.0,7.0,50,0.00,,,0.00,weatherlink.com 1.10,2013-05-14 13:17:00,
2013-05-14 08:32:00,67.5,46.0,29.61,North,-999,9.0,9.0,46,0.00,,,0.00,weatherlink.com 1.10,2013-05-14 13:32:00,
2013-05-14 08:47:00,68.3,46.0,29.61,North,-999,6.0,8.0,45,0.00,,,0.00,weatherlink.com 1.10,2013-05-14 13:47:00,
2013-05-14 09:02:00,69.0,45.0,29.62,North,-999,3.0,8.0,42,0.00,,,0.00,weatherlink.com 1.10,2013-05-14 14:02:00,
2013-05-14 09:17:00,69.4,45.0,29.65,North,-999,6.0,8.0,42,0.00,,,0.00,weatherlink.com 1.10,2013-05-14 14:17:00,
2013-05-14 09:32:00,70.0,45.0,29.65,North,-999,7.0,12.0,41,0.00,,,0.00,weatherlink.com 1.10,2013-05-14 14:32:00,
2013-05-14 09:47:00,69.6,47.0,29.64,North,-999,6.0,11.0,44,0.00,,,0.00,weatherlink.com 1.10,2013-05-14 14:47:00,
2013-05-14 10:02:00,70.1,46.0,29.63,North,-999,5.0,8.0,42,0.00,,,0.00,weatherlink.com 1.10,2013-05-14 15:02:00,
2013-05-14 10:17:00,70.4,47.0,29.63,North,-999,4.0,6.0,43,0.00,,,0.00,weatherlink.com 1.10,2013-05-14 15:17:00,
2013-05-14 10:32:00,70.5,47.0,29.63,North,-999,2.0,7.0,44,0.00,,,0.00,weatherlink.com 1.10,2013-05-14 15:32:00,
2013-05-14 10:47:00,71.0,48.0,29.63,North,-999,2.0,5.0,44,0.00,,,0.00,weatherlink.com 1.10,2013-05-14 15:47:00,
2013-05-14 11:02:00,69.7,46.0,29.61,North,-999,13.0,16.0,43,0.00,,,0.00,weatherlink.com 1.10,2013-05-14 16:02:00,
2013-05-14 11:17:00,74.9,48.0,29.55,North,-999,12.0,21.0,38,0.00,,,0.00,weatherlink.com 1.10,2013-05-14 16:17:00,
2013-05-14 11:32:00,76.1,49.0,29.52,North,-999,10.0,17.0,38,0.00,,,0.00,weatherlink.com 1.10,2013-05-14 16:32:00,
2013-05-14 11:47:00,75.8,50.0,29.52,North,-999,11.0,19.0,40,0.00,,,0.00,weatherlink.com 1.10,2013-05-14 16:47:00,
2013-05-14 12:02:00,78.0,49.0,29.50,North,-999,16.0,22.0,36,0.00,,,0.00,weatherlink.com 1.10,2013-05-14 17:02:00,
2013-05-14 12:17:00,81.1,48.0,29.52,North,-999,9.0,17.0,31,0.00,,,0.00,weatherlink.com 1.10,2013-05-14 17:17:00,
2013-05-14 12:32:00,83.0,48.0,29.52,North,-999,8.0,18.0,29,0.00,,,0.00,weatherlink.com 1.10,2013-05-14 17:32:00,
2013-05-14 12:47:00,82.8,46.0,29.51,North,-999,8.0,19.0,28,0.00,,,0.00,weatherlink.com 1.10,2013-05-14 17:47:00,
2013-05-14 13:02:00,84.3,47.0,29.50,North,-999,5.0,19.0,27,0.00,,,0.00,weatherlink.com 1.10,2013-05-14 18:02:00,
2013-05-14 13:18:00,84.7,47.0,29.50,North,-999,11.0,17.0,27,0.00,,,0.00,weatherlink.com 1.10,2013-05-14 18:18:00,
2013-05-14 13:33:00,84.7,48.0,29.50,North,-999,9.0,19.0,28,0.00,,,0.00,weatherlink.com 1.10,2013-05-14 18:33:00,
2013-05-14 13:48:00,85.4,48.0,29.48,North,-999,7.0,19.0,27,0.00,,,0.00,weatherlink.com 1.10,2013-05-14 18:48:00,
2013-05-14 14:03:00,86.8,49.0,29.48,North,-999,6.0,13.0,27,0.00,,,0.00,weatherlink.com 1.10,2013-05-14 19:03:00,
2013-05-14 14:18:00,88.9,49.0,29.48,North,-999,7.0,11.0,25,0.00,,,0.00,weatherlink.com 1.10,2013-05-14 19:18:00,
2013-05-14 14:33:00,88.9,50.0,29.46,North,-999,8.0,13.0,26,0.00,,,0.00,weatherlink.com 1.10,2013-05-14 19:33:00,
2013-05-14 14:48:00,90.3,51.0,29.46,North,-999,3.0,14.0,26,0.00,,,0.00,weatherlink.com 1.10,2013-05-14 19:48:00,
2013-05-14 15:03:00,90.8,49.0,29.45,North,-999,1.0,11.0,24,0.00,,,0.00,weatherlink.com 1.10,2013-05-14 20:03:00,
2013-05-14 15:18:00,92.9,50.0,29.45,North,-999,4.0,7.0,23,0.00,,,0.00,weatherlink.com 1.10,2013-05-14 20:18:00,
2013-05-14 15:33:00,93.6,49.0,29.45,North,-999,4.0,8.0,22,0.00,,,0.00,weatherlink.com 1.10,2013-05-14 20:33:00,
2013-05-14 15:48:00,93.6,47.0,29.44,North,-999,3.0,10.0,20,0.00,,,0.00,weatherlink.com 1.10,2013-05-14 20:48:00,
2013-05-14 16:03:00,93.8,48.0,29.46,North,-999,8.0,23.0,21,0.00,,,0.00,weatherlink.com 1.10,2013-05-14 21:03:00,
2013-05-14 16:18:00,93.1,45.0,29.46,North,-999,10.0,21.0,19,0.00,,,0.00,weatherlink.com 1.10,2013-05-14 21:18:00,
2013-05-14 16:33:00,93.5,47.0,29.46,North,-999,11.0,17.0,20,0.00,,,0.00,weatherlink.com 1.10,2013-05-14 21:33:00,
2013-05-14 16:48:00,93.6,44.0,29.46,North,-999,11.0,28.0,18,0.00,,,0.00,weatherlink.com 1.10,2013-05-14 21:48:00,
2013-05-14 17:03:00,92.3,40.0,29.47,North,-999,17.0,28.0,16,0.00,,,0.00,weatherlink.com 1.10,2013-05-14 22:03:00,
2013-05-14 17:18:00,91.5,41.0,29.47,North,-999,16.0,36.0,17,0.00,,,0.00,weatherlink.com 1.10,2013-05-14 22:18:00,
2013-05-14 17:33:00,90.7,42.0,29.48,North,-999,11.0,31.0,18,0.00,,,0.00,weatherlink.com 1.10,2013-05-14 22:33:00,
2013-05-14 17:48:00,90.4,33.0,29.49,North,-999,12.0,26.0,13,0.00,,,0.00,weatherlink.com 1.10,2013-05-14 22:48:00,
2013-05-14 18:04:00,89.4,32.0,29.49,North,-999,14.0,26.0,13,0.00,,,0.00,weatherlink.com 1.10,2013-05-14 23:04:00,
2013-05-14 18:19:00,88.5,38.0,29.49,North,-999,16.0,23.0,17,0.00,,,0.00,weatherlink.com 1.10,2013-05-14 23:19:00,
2013-05-14 18:33:00,86.8,37.0,29.50,North,-999,12.0,21.0,17,0.00,,,0.00,weatherlink.com 1.10,2013-05-14 23:33:00,
2013-05-14 18:49:00,85.7,33.0,29.51,North,-999,10.0,23.0,15,0.00,,,0.00,weatherlink.com 1.10,2013-05-14 23:49:00,
2013-05-14 19:05:00,83.9,30.0,29.51,North,-999,12.0,26.0,14,0.00,,,0.00,weatherlink.com 1.10,2013-05-15 00:05:00,
2013-05-14 19:20:00,83.1,32.0,29.52,North,-999,13.0,21.0,16,0.00,,,0.00,weatherlink.com 1.10,2013-05-15 00:20:00,
2013-05-14 19:34:00,82.3,33.0,29.52,North,-999,12.0,22.0,17,0.00,,,0.00,weatherlink.com 1.10,2013-05-15 00:34:00,
2013-05-14 19:50:00,81.4,31.0,29.53,North,-999,10.0,22.0,16,0.00,,,0.00,weatherlink.com 1.10,2013-05-15 00:50:00,
2013-05-14 20:04:00,80.1,34.0,29.54,North,-999,13.0,21.0,19,0.00,,,0.00,weatherlink.com 1.10,2013-05-15 01:04:00,
2013-05-14 20:20:00,78.4,35.0,29.55,North,-999,7.0,19.0,21,0.00,,,0.00,weatherlink.com 1.10,2013-05-15 01:20:00,
2013-05-14 20:35:00,77.0,35.0,29.56,North,-999,10.0,18.0,22,0.00,,,0.00,weatherlink.com 1.10,2013-05-15 01:35:00,
2013-05-14 20:49:00,76.1,36.0,29.57,North,-999,9.0,16.0,23,0.00,,,0.00,weatherlink.com 1.10,2013-05-15 01:49:00,
2013-05-14 21:05:00,75.1,36.0,29.58,North,-999,4.0,12.0,24,0.00,,,0.00,weatherlink.com 1.10,2013-05-15 02:05:00,
2013-05-14 21:19:00,74.5,38.0,29.59,North,-999,14.0,18.0,27,0.00,,,0.00,weatherlink.com 1.10,2013-05-15 02:19:00,
2013-05-14 21:35:00,73.1,39.0,29.59,North,-999,6.0,14.0,29,0.00,,,0.00,weatherlink.com 1.10,2013-05-15 02:35:00,
2013-05-14 21:50:00,72.2,40.0,29.61,North,-999,7.0,15.0,31,0.00,,,0.00,weatherlink.com 1.10,2013-05-15 02:50:00,
2013-05-14 22:05:00,71.1,41.0,29.62,North,-999,6.0,12.0,34,0.00,,,0.00,weatherlink.com 1.10,2013-05-15 03:05:00,
2013-05-14 22:20:00,70.5,43.0,29.63,North,-999,16.0,18.0,37,0.00,,,0.00,weatherlink.com 1.10,2013-05-15 03:20:00,
2013-05-14 22:36:00,69.5,43.0,29.63,North,-999,8.0,20.0,39,0.00,,,0.00,weatherlink.com 1.10,2013-05-15 03:36:00,
2013-05-14 22:50:00,68.5,44.0,29.64,North,-999,5.0,15.0,41,0.00,,,0.00,weatherlink.com 1.10,2013-05-15 03:50:00,
2013-05-14 23:06:00,67.8,44.0,29.64,North,-999,4.0,18.0,42,0.00,,,0.00,weatherlink.com 1.10,2013-05-15 04:06:00,
2013-05-14 23:21:00,67.0,44.0,29.66,North,-999,10.0,17.0,43,0.00,,,0.00,weatherlink.com 1.10,2013-05-15 04:21:00,
2013-05-14 23:35:00,66.1,44.0,29.66,North,-999,6.0,13.0,45,0.00,,,0.00,weatherlink.com 1.10,2013-05-15 04:35:00,
2013-05-14 23:52:00,65.4,44.0,29.67,North,-999,5.0,13.0,46,0.00,,,0.00,weatherlink.com 1.10,2013-05-15 04:52:00,